Regional Weather Roundup
Issued by NWS

Home | Current Version | Previous Version | Text Only | Print | Product List | Glossary Off
Versions: 1 2 3 4 5 6 7 8 9 10 11 12 13 14 15 16 17 18 19 20 21 22 23 24 25 26 27 28 29 30 31 32 33 34 35 36 37 38 39 40 41 42 43 44 45 46 47 48 49 50

000
ASUS43 KBIS 241210
RWRND

NORTH DAKOTA REGIONAL WEATHER ROUNDUP
NATIONAL WEATHER SERVICE BISMARCK ND
700 AM CDT SAT SEP 24 2016

NOTE: "FAIR" INDICATES FEW OR NO CLOUDS BELOW 12,000 FEET WITH NO
SIGNIFICANT WEATHER AND/OR OBSTRUCTIONS TO VISIBILITY.


NDZ001>003-009>011-017-241300-
NORTHWEST NORTH DAKOTA

CITY           SKY/WX    TMP DP  RH WIND       PRES   REMARKS
WILLISTON      CLOUDY    55  54  96 NW6       29.79F
6HR MIN TEMP:  55; 6HR MAX TEMP:  56; 6HR PCP:  0.01;

MINOT          FOG       60  60 100 N7        29.76F VSB 1/4
MINOT AFB      FOG       59  59  99 NE7       29.76F VSB 1/2
$$

NDZ018>021-031>035-040>046-241300-
SOUTHWEST NORTH DAKOTA

CITY           SKY/WX    TMP DP  RH WIND       PRES   REMARKS
BISMARCK       MOCLDY    61  60  97 NE9       29.75S
6HR MIN TEMP:  61; 6HR MAX TEMP:  63;

DICKINSON      LGT RAIN  56  56 100 NE7       29.74S VSB 1/2
GARRISON         N/A     60  60 100 N3        29.75F
6HR MIN TEMP:  59; 6HR MAX TEMP:  61; 6HR PCP:  0.09;

HETTINGER ARPT FOG       58  57  97 N12       29.71F VSB 1/2
$$

NDZ004>008-012>016-024-026-027-054-241300-
NORTHEAST NORTH DAKOTA

CITY           SKY/WX    TMP DP  RH WIND       PRES   REMARKS
GRAND FORKS    CLOUDY    63  60  90 SE16      29.89F
GRND FRKS AFB  CLOUDY    61  61 100 SE12      29.89F FOG
DEVILS LAKE    CLOUDY    59  59 100 E17       29.84F FOG
$$

NDZ022-023-025-028>030-036>039-047>053-241300-
SOUTHEAST NORTH DAKOTA

CITY           SKY/WX    TMP DP  RH WIND       PRES   REMARKS
FARGO          CLOUDY    68  64  87 SE18G29   29.89F
6HR MIN TEMP:  65; 6HR MAX TEMP:  68;

JAMESTOWN      PTCLDY    65  64  97 SE15G23   29.81F
$$





USA.gov is the U.S. government's official web portal to all federal, state and local government web resources and services.